| time (UTC) | temp F | wind direction | speed knots | gust knots | rain 1hr in | rain 24hr in | rain mn in | humidity % | barometer mb |
| 20260505122516 | 64 | 0.0 | 3.5 | 0.00 | 0.00 | 0.00 | 58 | 1014.1 | |
| 20260505121516 | 64 | 225 | 0.9 | 5.2 | 0.00 | 0.00 | 0.00 | 59 | 1014.0 |
| 20260505120516 | 63 | 180 | 0.9 | 6.1 | 0.00 | 0.00 | 0.00 | 59 | 1013.9 |
| 20260505115516 | 63 | 0.0 | 2.6 | 0.00 | 0.00 | 0.00 | 60 | 1013.8 | |
| 20260505114516 | 62 | 180 | 0.9 | 4.3 | 0.00 | 0.00 | 0.00 | 60 | 1013.7 |
| 20260505113516 | 62 | 0.0 | 3.5 | 0.00 | 0.00 | 0.00 | 61 | 1013.7 | |
| 20260505112516 | 62 | 225 | 0.9 | 5.2 | 0.00 | 0.00 | 0.00 | 60 | 1013.6 |
| 20260505111516 | 62 | 203 | 0.9 | 3.5 | 0.00 | 0.00 | 0.00 | 60 | 1013.5 |
| 20260505110516 | 61 | 0.0 | 3.5 | 0.00 | 0.00 | 0.00 | 60 | 1013.4 | |
| 20260505101516 | 60 | 225 | 0.9 | 6.1 | 0.00 | 0.00 | 0.00 | 62 | 1012.9 |
| 20260505100516 | 60 | 203 | 0.9 | 5.2 | 0.00 | 0.00 | 0.00 | 62 | 1013.0 |
| 20260505095516 | 60 | 0.0 | 0.0 | 0.00 | 0.00 | 0.00 | 62 | 1012.8 | |
| 20260505094516 | 60 | 0.0 | 1.7 | 0.00 | 0.00 | 0.00 | 62 | 1012.8 | |
| 20260505093516 | 61 | 0.0 | 2.6 | 0.00 | 0.00 | 0.00 | 62 | 1012.8 | |
| 20260505092516 | 61 | 0.0 | 0.0 | 0.00 | 0.00 | 0.00 | 63 | 1012.7 | |
| 20260505091516 | 61 | 0.0 | 0.0 | 0.00 | 0.00 | 0.00 | 62 | 1012.6 | |
| 20260505090516 | 61 | 0.0 | 0.0 | 0.00 | 0.00 | 0.00 | 62 | 1012.5 | |
| 20260505085516 | 61 | 0.0 | 3.5 | 0.00 | 0.00 | 0.00 | 62 | 1012.6 | |
| 20260505084516 | 61 | 180 | 0.9 | 5.2 | 0.00 | 0.00 | 0.00 | 63 | 1012.7 |
| 20260505083516 | 61 | 203 | 0.9 | 4.3 | 0.00 | 0.00 | 0.00 | 63 | 1012.6 |
| 20260505082516 | 61 | 0.0 | 4.3 | 0.00 | 0.00 | 0.00 | 63 | 1012.7 | |
| 20260505081516 | 62 | 0.0 | 4.3 | 0.00 | 0.00 | 0.00 | 62 | 1012.6 | |
| 20260505080516 | 62 | 203 | 0.9 | 4.3 | 0.00 | 0.00 | 0.00 | 62 | 1012.6 |
| 20260505075516 | 62 | 0.0 | 3.5 | 0.00 | 0.00 | 0.00 | 62 | 1012.5 | |
| 20260505074516 | 62 | 203 | 0.9 | 7.0 | 0.00 | 0.00 | 0.00 | 62 | 1012.5 |
| 20260505073536 | 62 | 203 | 0.9 | 6.1 | 0.00 | 0.00 | 0.00 | 61 | 1012.5 |
| 20260505072516 | 62 | 180 | 0.9 | 3.5 | 0.00 | 0.00 | 0.00 | 61 | 1012.5 |
| 20260505071516 | 62 | 180 | 0.9 | 4.3 | 0.00 | 0.00 | 0.00 | 61 | 1012.4 |
| 20260505070515 | 62 | 0.0 | 0.0 | 0.00 | 0.00 | 0.00 | 60 | 1012.4 | |
| 20260505065516 | 63 | 0.0 | 0.9 | 0.00 | 0.00 | 0.00 | 60 | 1012.4 | |
| 20260505064516 | 63 | 0.0 | 4.3 | 0.00 | 0.00 | 0.00 | 60 | 1012.4 | |
| 20260505063516 | 63 | 0.0 | 3.5 | 0.00 | 0.00 | 0.00 | 61 | 1012.3 | |
| 20260505062516 | 62 | 0.0 | 2.6 | 0.00 | 0.00 | 0.00 | 61 | 1012.3 | |
| 20260505061516 | 62 | 0.0 | 1.7 | 0.00 | 0.00 | 0.00 | 61 | 1012.3 | |
| 20260505060515 | 62 | 0.0 | 0.0 | 0.00 | 0.00 | 0.00 | 62 | 1012.3 | |
| 20260505055516 | 62 | 0.0 | 0.0 | 0.00 | 0.00 | 0.00 | 62 | 1012.4 | |
| 20260505054516 | 63 | 0.0 | 0.0 | 0.00 | 0.00 | 0.00 | 61 | 1012.4 | |
| 20260505053516 | 63 | 0.0 | 0.0 | 0.00 | 0.00 | 0.00 | 60 | 1012.3 | |
| 20260505052516 | 64 | 0.0 | 0.0 | 0.00 | 0.00 | 0.00 | 59 | 1012.4 | |
| 20260505051516 | 64 | 0.0 | 0.0 | 0.00 | 0.00 | 0.00 | 58 | 1012.5 | |
| 20260505050516 | 65 | 0.0 | 0.0 | 0.00 | 0.00 | 0.00 | 57 | 1012.5 | |
| 20260505041536 | 66 | 0.0 | 0.9 | 0.00 | 0.00 | 0.00 | 54 | 1012.6 | |
| 20260505040516 | 66 | 0.0 | 0.0 | 0.00 | 0.00 | 0.00 | 53 | 1012.5 | |
| 20260505035517 | 66 | 0.0 | 0.0 | 0.00 | 0.00 | 0.00 | 52 | 1012.3 | |
| 20260505034517 | 67 | 0.0 | 0.0 | 0.00 | 0.00 | 0.00 | 51 | 1012.4 | |
| 20260505033517 | 67 | 0.0 | 0.9 | 0.00 | 0.00 | 0.00 | 51 | 1012.3 | |
| 20260505032517 | 67 | 0.0 | 0.0 | 0.00 | 0.00 | 0.00 | 50 | 1012.3 | |
| 20260505031517 | 67 | 0.0 | 1.7 | 0.00 | 0.00 | 0.00 | 50 | 1012.3 | |
| 20260505030517 | 68 | 0.0 | 2.6 | 0.00 | 0.00 | 0.00 | 50 | 1012.3 | |
| 20260505025517 | 68 | 0.0 | 2.6 | 0.00 | 0.00 | 0.00 | 50 | 1012.2 | |
| 20260505024517 | 68 | 0.0 | 0.9 | 0.00 | 0.00 | 0.00 | 49 | 1012.3 | |
| 20260505023537 | 68 | 0.0 | 2.6 | 0.00 | 0.00 | 0.00 | 48 | 1012.2 | |
| 20260505022516 | 69 | 203 | 0.9 | 4.3 | 0.00 | 0.00 | 0.00 | 48 | 1012.3 |
| 20260505021517 | 69 | 0.0 | 2.6 | 0.00 | 0.00 | 0.00 | 48 | 1012.3 | |
| 20260505020517 | 69 | 203 | 0.9 | 3.5 | 0.00 | 0.00 | 0.00 | 47 | 1012.0 |
| 20260505015517 | 69 | 0.0 | 0.0 | 0.00 | 0.00 | 0.00 | 47 | 1012.1 | |
| 20260505014516 | 70 | 0.0 | 2.6 | 0.00 | 0.00 | 0.00 | 46 | 1012.0 | |
| 20260505013517 | 70 | 0.0 | 2.6 | 0.00 | 0.00 | 0.00 | 45 | 1011.9 | |
| 20260505012517 | 71 | 0.0 | 0.0 | 0.00 | 0.00 | 0.00 | 44 | 1011.7 | |
| 20260505011517 | 71 | 0.0 | 0.9 | 0.00 | 0.00 | 0.00 | 44 | 1011.6 | |
| 20260505010516 | 71 | 0.0 | 1.7 | 0.00 | 0.00 | 0.00 | 44 | 1011.6 | |
| 20260505005517 | 72 | 0.0 | 1.7 | 0.00 | 0.00 | 0.00 | 43 | 1011.6 | |
| 20260505004517 | 72 | 203 | 0.9 | 4.3 | 0.00 | 0.00 | 0.00 | 44 | 1011.5 |
| 20260505003516 | 72 | 225 | 0.9 | 3.5 | 0.00 | 0.00 | 0.00 | 42 | 1011.4 |
| 20260505002516 | 72 | 225 | 0.9 | 4.3 | 0.00 | 0.00 | 0.00 | 42 | 1011.4 |
| 20260505001517 | 73 | 225 | 0.9 | 4.3 | 0.00 | 0.00 | 0.00 | 41 | 1011.3 |
| 20260505000516 | 73 | 248 | 0.9 | 3.5 | 0.00 | 0.00 | 0.00 | 41 | 1011.3 |
| 20260504235517 | 73 | 270 | 0.9 | 5.2 | 0.00 | 0.00 | 0.00 | 40 | 1011.2 |
| 20260504234517 | 73 | 248 | 2.6 | 10.4 | 0.00 | 0.00 | 0.00 | 40 | 1011.3 |
| 20260504233536 | 73 | 0.0 | 0.9 | 0.00 | 0.00 | 0.00 | 38 | 1011.2 | |
| 20260504232516 | 74 | 158 | 0.9 | 9.6 | 0.00 | 0.00 | 0.00 | 38 | 1011.1 |
| 20260504231517 | 74 | 203 | 1.7 | 6.1 | 0.00 | 0.00 | 0.00 | 37 | 1011.1 |
| 20260504230517 | 74 | 225 | 1.7 | 8.7 | 0.00 | 0.00 | 0.00 | 37 | 1011.0 |
| 20260504225517 | 75 | 225 | 0.9 | 6.1 | 0.00 | 0.00 | 0.00 | 37 | 1011.0 |
| 20260504224516 | 75 | 248 | 1.7 | 9.6 | 0.00 | 0.00 | 0.00 | 36 | 1011.0 |
| 20260504223516 | 75 | 225 | 1.7 | 10.4 | 0.00 | 0.00 | 0.00 | 36 | 1011.2 |
| 20260504222517 | 75 | 180 | 2.6 | 9.6 | 0.00 | 0.00 | 0.00 | 35 | 1011.0 |
| 20260504221516 | 75 | 180 | 2.6 | 11.3 | 0.00 | 0.00 | 0.00 | 36 | 1011.1 |
| 20260504220517 | 75 | 203 | 1.7 | 7.8 | 0.00 | 0.00 | 0.00 | 36 | 1011.1 |
| 20260504215516 | 75 | 135 | 3.5 | 11.3 | 0.00 | 0.00 | 0.00 | 35 | 1011.2 |
| 20260504214517 | 76 | 135 | 2.6 | 10.4 | 0.00 | 0.00 | 0.00 | 34 | 1011.1 |
| 20260504213516 | 77 | 158 | 4.3 | 12.2 | 0.00 | 0.00 | 0.00 | 33 | 1011.1 |
| 20260504212516 | 77 | 248 | 0.9 | 7.0 | 0.00 | 0.00 | 0.00 | 33 | 1011.1 |
| 20260504211516 | 77 | 158 | 3.5 | 7.8 | 0.00 | 0.00 | 0.00 | 32 | 1011.0 |
| 20260504210517 | 78 | 135 | 2.6 | 10.4 | 0.00 | 0.00 | 0.00 | 31 | 1011.1 |
| 20260504210432 | 77 | 135 | 0.9 | 6.1 | 0.00 | 0.00 | 0.00 | 32 | 1011.0 |